Time,TemperatureF,DewpointF,PressureIn,WindDirection,WindDirectionDegrees,WindSpeedMPH,WindSpeedGustMPH,Humidity,HourlyPrecipIn,Conditions,Clouds,dailyrainin,SoftwareType,DateUTC
2013-04-06 02:33:00,44.0,35.0,30.06,NW,306,0.0,0.0,70,0.00,,,0.00,,2013-04-06 07:33:00,
2013-04-06 02:44:00,44.0,35.0,30.06,NW,306,0.0,0.0,70,0.00,,,0.00,,2013-04-06 07:44:00,
2013-04-06 02:53:00,44.0,34.0,30.06,NW,306,0.0,0.0,68,0.00,,,0.00,,2013-04-06 07:53:00,
2013-04-06 03:02:00,44.0,33.0,30.05,NW,306,0.0,0.0,65,0.00,,,0.00,,2013-04-06 08:02:00,
2013-04-06 03:12:00,44.0,33.0,30.05,NW,306,0.0,0.0,65,0.00,,,0.00,,2013-04-06 08:12:00,
2013-04-06 03:22:00,44.0,33.0,30.05,NW,306,0.0,0.0,65,0.00,,,0.00,,2013-04-06 08:22:00,
2013-04-06 03:32:00,44.0,33.0,30.06,NW,306,0.0,0.0,65,0.00,,,0.00,,2013-04-06 08:32:00,
2013-04-06 03:42:00,44.0,33.0,30.06,NW,306,0.0,0.0,65,0.00,,,0.00,,2013-04-06 08:42:00,
2013-04-06 03:52:00,44.0,33.0,30.06,NW,306,0.0,0.0,65,0.00,,,0.00,,2013-04-06 08:52:00,
2013-04-06 04:02:00,44.0,34.0,30.06,NW,306,0.0,0.0,67,0.00,,,0.00,,2013-04-06 09:02:00,
2013-04-06 04:12:00,44.0,34.0,30.06,NW,306,0.0,0.0,67,0.00,,,0.00,,2013-04-06 09:12:00,
2013-04-06 04:22:00,44.0,34.0,30.06,NW,306,0.0,0.0,67,0.00,,,0.00,,2013-04-06 09:22:00,
2013-04-06 04:32:00,44.0,34.0,30.06,NW,306,0.0,0.0,67,0.00,,,0.00,,2013-04-06 09:32:00,
2013-04-06 06:02:00,43.0,34.0,30.05,NW,306,0.0,0.0,69,0.00,,,0.00,,2013-04-06 11:02:00,
2013-04-06 06:12:00,43.0,34.0,30.05,NW,306,0.0,0.0,69,0.00,,,0.00,,2013-04-06 11:12:00,
2013-04-06 06:23:00,43.0,34.0,30.05,NW,306,0.0,0.0,69,0.00,,,0.00,,2013-04-06 11:23:00,
2013-04-06 06:33:00,43.0,35.0,30.05,NW,306,0.0,0.0,72,0.00,,,0.00,,2013-04-06 11:33:00,
2013-04-06 06:42:00,43.0,35.0,30.05,NW,306,0.0,0.0,72,0.00,,,0.00,,2013-04-06 11:42:00,
2013-04-06 06:52:00,43.0,35.0,30.05,NW,306,0.0,0.0,72,0.00,,,0.00,,2013-04-06 11:52:00,
2013-04-06 07:02:00,43.0,34.0,30.06,NW,306,0.0,0.0,70,0.00,,,0.00,,2013-04-06 12:02:00,
2013-04-06 07:12:00,43.0,34.0,30.06,NW,306,0.0,0.0,70,0.00,,,0.00,,2013-04-06 12:12:00,
2013-04-06 07:22:00,43.0,34.0,30.06,NW,306,0.0,0.0,70,0.00,,,0.00,,2013-04-06 12:22:00,
2013-04-06 07:32:00,43.0,34.0,30.06,NW,306,0.0,0.0,70,0.00,,,0.00,,2013-04-06 12:32:00,
2013-04-06 07:53:00,46.0,35.0,30.06,ENE,60,2.0,2.0,65,0.00,,,0.00,,2013-04-06 12:53:00,
2013-04-06 08:03:00,49.0,34.0,30.05,SE,132,1.0,2.0,56,0.00,,,0.00,,2013-04-06 13:03:00,
2013-04-06 08:13:00,49.0,34.0,30.05,SE,132,1.0,2.0,56,0.00,,,0.00,,2013-04-06 13:13:00,
2013-04-06 08:23:00,50.0,36.0,30.05,SE,132,0.0,0.0,58,0.00,,,0.00,,2013-04-06 13:23:00,
2013-04-06 08:32:00,50.0,35.0,30.06,SSW,211,0.0,2.0,57,0.00,,,0.00,,2013-04-06 13:32:00,
2013-04-06 08:42:00,50.0,35.0,30.06,SSW,211,0.0,2.0,57,0.00,,,0.00,,2013-04-06 13:42:00,
2013-04-06 08:52:00,51.0,35.0,30.06,SSE,162,1.0,2.0,55,0.00,,,0.00,,2013-04-06 13:52:00,
2013-04-06 09:04:00,52.0,36.0,30.06,SSE,166,0.0,2.0,54,0.00,,,0.00,,2013-04-06 14:04:00,
2013-04-06 09:12:00,52.0,36.0,30.06,SSE,166,0.0,2.0,54,0.00,,,0.00,,2013-04-06 14:12:00,
2013-04-06 09:22:00,53.0,36.0,30.06,ESE,112,2.0,3.0,52,0.00,,,0.00,,2013-04-06 14:22:00,
2013-04-06 09:32:00,54.0,36.0,30.05,South,184,3.0,3.0,50,0.00,,,0.00,,2013-04-06 14:32:00,
2013-04-06 09:42:00,54.0,36.0,30.05,South,184,3.0,3.0,50,0.00,,,0.00,,2013-04-06 14:42:00,
2013-04-06 09:52:00,55.0,37.0,30.05,SE,142,6.0,6.0,50,0.00,,,0.00,,2013-04-06 14:52:00,
2013-04-06 10:02:00,59.0,38.0,30.04,SE,146,1.0,3.0,46,0.00,,,0.00,,2013-04-06 15:02:00,
2013-04-06 10:12:00,59.0,38.0,30.04,SE,146,1.0,3.0,46,0.00,,,0.00,,2013-04-06 15:12:00,
2013-04-06 10:22:00,60.0,37.0,30.04,SE,126,2.0,2.0,43,0.00,,,0.00,,2013-04-06 15:22:00,
2013-04-06 10:33:00,62.0,37.0,30.03,SE,146,3.0,3.0,39,0.00,,,0.00,,2013-04-06 15:33:00,
2013-04-06 10:43:00,62.0,37.0,30.03,SE,146,3.0,3.0,39,0.00,,,0.00,,2013-04-06 15:43:00,
2013-04-06 10:52:00,63.0,40.0,30.03,SSW,193,4.0,10.0,42,0.00,,,0.00,,2013-04-06 15:52:00,
2013-04-06 11:05:00,64.0,38.0,30.01,SSE,161,3.0,5.0,38,0.00,,,0.00,,2013-04-06 16:05:00,
2013-04-06 11:17:00,64.0,38.0,30.01,SSE,161,3.0,5.0,38,0.00,,,0.00,,2013-04-06 16:17:00,
2013-04-06 11:23:00,66.0,40.0,30.01,ESE,110,3.0,9.0,39,0.00,,,0.00,,2013-04-06 16:23:00,
2013-04-06 11:32:00,67.0,41.0,30.00,South,179,2.0,3.0,39,0.00,,,0.00,,2013-04-06 16:32:00,
2013-04-06 11:42:00,67.0,41.0,30.00,South,179,2.0,3.0,39,0.00,,,0.00,,2013-04-06 16:42:00,
2013-04-06 11:52:00,67.0,40.0,30.00,ESE,117,2.0,12.0,37,0.00,,,0.00,,2013-04-06 16:52:00,
2013-04-06 12:02:00,69.0,40.0,29.99,South,180,1.0,4.0,35,0.00,,,0.00,,2013-04-06 17:02:00,
2013-04-06 12:12:00,69.0,40.0,29.99,South,180,1.0,4.0,35,0.00,,,0.00,,2013-04-06 17:12:00,
2013-04-06 12:22:00,69.0,39.0,29.99,South,175,5.0,13.0,34,0.00,,,0.00,,2013-04-06 17:22:00,
2013-04-06 12:32:00,70.0,40.0,29.97,West,259,8.0,10.0,34,0.00,,,0.00,,2013-04-06 17:32:00,
2013-04-06 12:42:00,70.0,40.0,29.97,West,259,8.0,10.0,34,0.00,,,0.00,,2013-04-06 17:42:00,
2013-04-06 12:52:00,70.0,42.0,29.97,SE,126,4.0,4.0,36,0.00,,,0.00,,2013-04-06 17:52:00,
2013-04-06 13:03:00,71.0,41.0,29.95,SW,225,3.0,5.0,34,0.00,,,0.00,,2013-04-06 18:03:00,
2013-04-06 13:12:00,71.0,41.0,29.95,SW,225,3.0,5.0,34,0.00,,,0.00,,2013-04-06 18:12:00,
2013-04-06 13:23:00,72.0,41.0,29.95,ESE,119,10.0,10.0,32,0.00,,,0.00,,2013-04-06 18:23:00,
2013-04-06 13:32:00,72.0,42.0,29.93,South,177,3.0,11.0,34,0.00,,,0.00,,2013-04-06 18:32:00,
2013-04-06 13:42:00,72.0,42.0,29.93,South,177,3.0,11.0,34,0.00,,,0.00,,2013-04-06 18:42:00,
2013-04-06 13:52:00,72.0,44.0,29.93,South,171,11.0,11.0,36,0.00,,,0.00,,2013-04-06 18:52:00,
2013-04-06 14:03:00,72.0,42.0,29.91,South,180,5.0,5.0,34,0.00,,,0.00,,2013-04-06 19:03:00,
2013-04-06 14:12:00,72.0,42.0,29.91,South,180,5.0,5.0,34,0.00,,,0.00,,2013-04-06 19:12:00,
2013-04-06 14:22:00,72.0,39.0,29.91,SSW,200,9.0,11.0,30,0.00,,,0.00,,2013-04-06 19:22:00,
2013-04-06 14:32:00,72.0,41.0,29.89,South,187,2.0,5.0,33,0.00,,,0.00,,2013-04-06 19:32:00,
2013-04-06 14:42:00,72.0,41.0,29.89,South,187,2.0,5.0,33,0.00,,,0.00,,2013-04-06 19:42:00,
2013-04-06 14:52:00,72.0,41.0,29.89,South,187,2.0,5.0,33,0.00,,,0.00,,2013-04-06 19:52:00,
2013-04-06 15:03:00,72.0,41.0,29.89,South,187,2.0,5.0,33,0.00,,,0.00,,2013-04-06 20:03:00,
2013-04-06 15:12:00,72.0,41.0,29.89,South,187,2.0,5.0,33,0.00,,,0.00,,2013-04-06 20:12:00,
2013-04-06 20:33:00,66.0,39.0,29.80,ESE,102,2.0,2.0,37,0.00,,,0.00,,2013-04-07 01:33:00,
2013-04-06 20:43:00,66.0,39.0,29.80,ESE,102,2.0,2.0,37,0.00,,,0.00,,2013-04-07 01:43:00,
2013-04-06 20:53:00,66.0,40.0,29.80,ESE,103,1.0,1.0,38,0.00,,,0.00,,2013-04-07 01:53:00,
2013-04-06 21:03:00,65.0,41.0,29.82,South,190,0.0,1.0,41,0.00,,,0.00,,2013-04-07 02:03:00,
2013-04-06 21:12:00,65.0,41.0,29.82,South,190,0.0,1.0,41,0.00,,,0.00,,2013-04-07 02:12:00,
2013-04-06 21:23:00,64.0,42.0,29.82,SSE,163,2.0,3.0,44,0.00,,,0.00,,2013-04-07 02:23:00,
2013-04-06 21:32:00,64.0,40.0,29.77,SSE,168,4.0,4.0,42,0.00,,,0.00,,2013-04-07 02:32:00,
2013-04-06 21:42:00,64.0,40.0,29.77,SSE,168,4.0,4.0,42,0.00,,,0.00,,2013-04-07 02:42:00,
2013-04-06 21:52:00,64.0,39.0,29.77,South,182,1.0,2.0,40,0.00,,,0.00,,2013-04-07 02:52:00,
2013-04-06 22:02:00,65.0,41.0,29.79,South,178,1.0,3.0,41,0.00,,,0.00,,2013-04-07 03:02:00,
2013-04-06 22:12:00,65.0,41.0,29.79,South,178,1.0,3.0,41,0.00,,,0.00,,2013-04-07 03:12:00,
2013-04-06 22:22:00,64.0,40.0,29.79,South,182,2.0,2.0,41,0.00,,,0.00,,2013-04-07 03:22:00,
2013-04-06 22:34:00,64.0,40.0,29.80,South,187,3.0,4.0,41,0.00,,,0.00,,2013-04-07 03:34:00,
2013-04-06 22:43:00,64.0,40.0,29.80,South,187,3.0,4.0,41,0.00,,,0.00,,2013-04-07 03:43:00,
2013-04-06 22:53:00,64.0,40.0,29.80,South,188,3.0,5.0,42,0.00,,,0.00,,2013-04-07 03:53:00,
2013-04-06 23:03:00,63.0,41.0,29.81,SSE,156,3.0,4.0,44,0.00,,,0.00,,2013-04-07 04:03:00,
2013-04-06 23:23:00,62.0,40.0,29.81,SW,219,1.0,3.0,45,0.00,,,0.00,,2013-04-07 04:23:00,
2013-04-06 23:32:00,62.0,42.0,29.80,South,173,3.0,3.0,47,0.00,,,0.00,,2013-04-07 04:32:00,
2013-04-06 23:43:00,62.0,42.0,29.80,South,173,3.0,3.0,47,0.00,,,0.00,,2013-04-07 04:43:00,
2013-04-06 23:52:00,62.0,41.0,29.80,South,186,2.0,9.0,46,0.00,,,0.00,,2013-04-07 04:52:00,